If you wish to contribute or participate in the discussions about articles you are invited to join SKYbrary as a registered user

 Actions

Strasbourg Airport

From SKYbrary Wiki

LFST
Airport
ICAO: LFST – IATA: SXB
Summary
Name Strasbourg Airport
Region Europe
Territory France FR.gif
Location , Alsace
Serving Strasbourg
Elevation 153.924 m
505 ft
505 ft153.924 m
Type medium airport
Coordinates 48° 32' 17.95" N, 7° 37' 41.64" E
Runways
Designator Length Width Surface ROPS
5/23 2400 m7,874.016 ft
45 m147.638 ft
ASP yes/yes


METAR
Observation LFST 170030Z AUTO 13004KT 110V180 CAVOK 12/09 Q1014 NOSIG
Station Strasbourg
Date/Time 17 October 2019 00:30:00
Wind direction 130°
Wind speed 04 kts
Lowest cloud amount clouds and visibility OK
Temperature 12°C
Dew point 9°C
Humidity 81%
QNH 1014 hPa
Weather condition n/a